[[{"header":{"parameterUnit":"m.s-1","parameterCategory":1,"la1":30.2991,"la2":30.254,"lo1":-89.0895,"lo2":-89.0444,"dy":0.0017,"dx":0.0017,"nx":28,"ny":28,"refTime":"2025-01-29T03:00:00:Z","depth":0,"parameterNumber":2,"parameterNumberName":"U-component_of_WINDS"},"data":[0,0,0,0,0,0,0,0,0,0,0,0,0,0,0,0,0,0,0,0,0,0,0,0,0,0,0,0,0,0,0,0,0,0,0,0,0,0,0,0,0,0,0,0,0,0,0,0,0,0,0,0,0,0,0,0,0,0,-2.2716,-2.2716,0,-2.2753,-2.2754,-2.2754,-2.2709,-2.2707,-2.2705,-2.2704,-2.2743,-2.2745,-2.2748,0,0,0,0,0,0,0,0,0,0,0,0,0,-2.2605,-2.2608,-2.2716,-2.2716,-2.2717,-2.2753,-2.2754,-2.2754,-2.2709,-2.2707,-2.2705,-2.2703,-2.2742,-2.2745,-2.2748,0,0,0,0,0,0,0,0,0,0,0,0,0,-2.2649,-2.2608,-2.2716,-2.2698,-2.2697,-2.2753,-2.2754,-2.2755,-2.2709,-2.2707,-2.2704,-2.2702,-2.2741,-2.2745,-2.2749,-2.2824,0,0,-2.2761,-2.2762,0,0,0,0,0,0,0,0,-2.2647,-2.2653,-2.2701,-2.27,-2.2699,-2.2724,-2.2729,-2.2778,-2.271,-2.2705,-2.2704,-2.2701,-2.2739,-2.2743,-2.2755,-2.2826,-2.2827,-2.2761,-2.2763,-2.2765,-2.2766,0,0,0,0,0,0,0,-2.2644,-2.2652,-2.2731,-2.2701,-2.27,-2.2689,-2.2693,-2.2738,-2.2736,-2.2705,-2.2702,-2.2707,-2.2738,-2.2752,-2.2756,-2.2828,-2.2761,-2.2764,-2.2767,-2.2768,-2.2962,-2.2964,0,0,0,0,0,0,-2.2643,-2.2649,-2.273,-2.2732,-2.2666,-2.2693,-2.2697,-2.2718,-2.2735,-2.2735,-2.2709,-2.2705,-2.2746,-2.2751,-2.2757,-2.2846,-2.2765,-2.2769,-2.2771,-2.2959,-2.2962,-2.2965,0,0,0,0,0,0,-2.2641,-2.265,-2.2728,-2.269,-2.2699,-2.2698,-2.2722,-2.272,-2.2734,-2.2738,-2.2737,-2.2724,-2.2744,-2.2752,-2.2807,-2.2846,-2.2771,-2.2774,-2.2956,-2.296,-2.2964,-2.3024,0,0,0,0,0,0,-2.2638,-2.265,-2.2678,-2.2691,-2.2701,-2.2778,-2.2724,-2.2723,-2.2741,-2.2736,-2.2751,-2.2752,-2.2743,-2.2802,-2.2811,-2.285,-2.2777,-2.2952,-2.2957,-2.2962,-2.3018,-2.3029,-2.3039,0,0,0,0,0,-2.2634,-2.2694,-2.268,-2.269,-2.2736,-2.278,-2.2786,-2.2774,-2.2744,-2.2773,-2.2775,-2.2751,-2.2841,-2.2808,-2.2818,-2.2859,-2.295,-2.2956,-2.2962,-2.3014,-2.3027,-2.3039,0,0,0,0,0,0,-2.2686,-2.2695,-2.268,-2.2745,-2.2762,-2.2772,-2.2808,-2.2789,-2.2815,-2.2809,-2.2794,-2.2798,-2.2857,-2.2864,-2.2827,-2.2933,-2.289,-2.2899,-2.2926,-2.2939,-2.2949,-2.2946,-2.2781,0,0,0,0,0,-2.2705,-2.274,-2.2746,-2.2803,-2.2812,-2.2809,-2.2828,-2.2817,-2.2834,-2.2841,-2.2847,-2.2865,-2.2897,-2.2918,-2.2948,-2.3019,-2.3022,-2.3052,-2.3063,-2.3071,-2.3079,-2.3116,-2.313,-2.2986,-2.2986,-2.2985,0,0,-2.2745,-2.2754,-2.2777,-2.2814,-2.2826,-2.2862,-2.2815,-2.2855,-2.2882,-2.2847,-2.29,-2.2906,-2.2924,-2.2988,-2.3016,-2.2995,-2.3119,-2.3079,-2.3086,-2.3089,-2.3124,-2.3138,-2.315,-2.299,-2.2989,-2.2988,0,0,-2.2836,-2.2847,-2.2895,-2.2908,-2.2927,-2.2924,-2.2936,-2.2949,-2.2951,-2.3004,-2.2978,-2.301,-2.3066,-2.308,-2.3094,-2.3191,-2.317,-2.3202,-2.3255,-2.3292,-2.3304,-2.3314,-2.3348,-2.336,-2.3209,-2.3209,-2.3209,0,-2.2883,-2.2936,-2.2923,-2.2965,-2.2982,-2.2952,-2.3001,-2.3015,-2.3042,-2.3055,-2.3031,-2.31,-2.311,-2.3177,-2.32,-2.3213,-2.3226,-2.3199,-2.3303,-2.3313,-2.3322,-2.3354,-2.3367,-2.3213,-2.3212,-2.3212,-2.3212,0,-2.2993,-2.3031,-2.3068,-2.3095,-2.3116,-2.3162,-2.3155,-2.3179,-2.3167,-2.3167,-2.3221,-2.3233,-2.3264,-2.3279,-2.3268,-2.3344,-2.3331,-2.3305,-2.3262,-2.334,-2.337,-2.3382,-2.3218,-2.3217,-2.3216,-2.3215,0,0,-2.3117,-2.3136,-2.315,-2.3162,-2.318,-2.3209,-2.3254,-2.3284,-2.3304,-2.3324,-2.3361,-2.3409,-2.3386,-2.3402,-2.3393,-2.3425,-2.3501,-2.3396,-2.3396,-2.3414,-2.3585,-2.3603,-2.3618,-2.3487,-2.3489,-2.3491,-2.3583,0,-2.3208,-2.3284,-2.3274,-2.3347,-2.3381,-2.3354,-2.3392,-2.3408,-2.3409,-2.3439,-2.344,-2.3474,-2.3441,-2.3451,-2.3482,-2.3485,-2.3535,-2.3478,-2.3521,-2.3522,-2.3516,-2.3633,-2.3653,-2.3739,-2.3595,-2.3597,-2.3598,0,-2.3323,-2.3347,-2.3424,-2.3437,-2.3451,-2.3486,-2.3513,-2.3542,-2.3559,-2.3558,-2.3576,-2.3561,-2.3606,-2.3563,-2.3624,-2.3586,-2.3603,-2.3607,-2.361,-2.3613,-2.3564,-2.3639,-2.3766,-2.3779,-2.3617,-2.3615,-2.3614,0,-2.3405,-2.3457,-2.3509,-2.3521,-2.3537,-2.3562,-2.357,-2.3585,-2.3604,-2.3628,-2.364,-2.3669,-2.3685,-2.3708,-2.3701,-2.367,-2.3764,-2.372,-2.3764,-2.3764,-2.3784,-2.3782,-2.3915,-2.3796,-2.3796,-2.3796,-2.3796,0,-2.3507,-2.3555,-2.3546,-2.3579,-2.3632,-2.3619,-2.3672,-2.3677,-2.3691,-2.3723,-2.3702,-2.3733,-2.3722,-2.3753,-2.3748,-2.3799,-2.3807,-2.3807,-2.3805,-2.3808,-2.3808,-2.3818,-2.3812,-2.3799,-2.3799,-2.3798,-2.3797,0,-2.3607,-2.3603,-2.3659,-2.367,-2.3674,-2.3712,-2.3722,-2.3752,-2.3752,-2.3794,-2.3803,-2.3803,-2.3838,-2.3834,-2.3873,-2.387,-2.3933,-2.3924,-2.3927,-2.3925,-2.3968,-2.3964,-2.4111,-2.4129,-2.4,-2.4001,-2.4002,0,-2.3672,-2.3708,-2.3723,-2.3743,-2.3753,-2.3786,-2.3805,-2.3795,-2.3816,-2.3838,-2.3866,-2.3899,-2.3925,-2.3983,-2.3986,-2.4016,-2.4007,-2.4057,-2.4012,-2.4014,-2.4007,-2.4005,-2.4008,-2.4066,-2.4067,-2.4068,-2.4069,0,-2.3787,-2.3783,-2.3811,-2.3839,-2.3863,-2.3884,-2.3904,-2.3922,-2.3913,-2.3938,-2.3973,-2.3994,-2.4034,-2.4067,-2.4095,-2.4104,-2.4085,-2.4084,-2.4095,-2.4099,-2.4098,-2.4098,-2.395,-2.408,-2.4079,-2.4078,-2.4078,-2.4077,-2.387,-2.3901,-2.3916,-2.3949,-2.3962,-2.3981,-2.401,-2.4013,-2.4043,-2.4074,-2.4066,-2.4107,-2.4123,-2.4159,-2.4171,-2.4202,-2.4184,-2.4201,-2.4205,-2.4209,-2.4214,-2.4094,-2.4208,-2.4207,-2.4207,-2.4207,-2.4206,0,-2.3983,-2.3992,-2.4022,-2.4049,-2.4075,-2.4055,-2.4076,-2.4099,-2.4134,-2.4151,-2.4177,-2.4218,-2.425,-2.4256,-2.4287,-2.4311,-2.4303,-2.4319,-2.4317,-2.4319,-2.4229,-2.4215,-2.4325,-2.4325,-2.4325,-2.4325,-2.4325,-2.4325,-2.4045,-2.4096,-2.4094,-2.4151,-2.416,-2.4198,-2.4212,-2.4229,-2.4242,-2.4289,-2.4315,-2.4319,-2.4332,-2.4363,-2.4392,-2.4393,-2.4405,-2.4424,-2.4422,-2.4337,-2.4325,-2.4314,-2.4301,-2.4427,-2.4427,-2.4509,-2.451,-2.4511]},{"header":{"parameterUnit":"m.s-1","parameterCategory":1,"la1":30.2991,"la2":30.254,"lo1":-89.0895,"lo2":-89.0444,"dy":0.0017,"dx":0.0017,"nx":28,"ny":28,"refTime":"2025-01-29T03:00:00:Z","depth":0,"parameterNumber":3,"parameterNumberName":"V-component_of_WINDS"},"data":[0,0,0,0,0,0,0,0,0,0,0,0,0,0,0,0,0,0,0,0,0,0,0,0,0,0,0,0,0,0,0,0,0,0,0,0,0,0,0,0,0,0,0,0,0,0,0,0,0,0,0,0,0,0,0,0,0,0,0.6044,0.6044,0,0.6088,0.6089,0.6089,0.6106,0.6105,0.6105,0.6105,0.615,0.6151,0.6153,0,0,0,0,0,0,0,0,0,0,0,0,0,0.5973,0.5975,0.6044,0.6044,0.6045,0.6088,0.6089,0.6089,0.6106,0.6105,0.6105,0.6105,0.615,0.6151,0.6153,0,0,0,0,0,0,0,0,0,0,0,0,0,0.6009,0.5975,0.6044,0.6058,0.606,0.6088,0.6089,0.609,0.6106,0.6105,0.6105,0.6105,0.6149,0.6151,0.6153,0.617,0,0,0.6159,0.616,0,0,0,0,0,0,0,0,0.6007,0.6012,0.6056,0.6057,0.6059,0.6091,0.608,0.6116,0.6106,0.6088,0.6105,0.6105,0.6131,0.6134,0.6143,0.6172,0.6174,0.6159,0.616,0.6161,0.6162,0,0,0,0,0,0,0,0.6005,0.601,0.6061,0.6056,0.6058,0.6063,0.6068,0.6087,0.611,0.609,0.6091,0.6096,0.6132,0.6141,0.6144,0.6174,0.6159,0.6161,0.6162,0.6163,0.6221,0.6221,0,0,0,0,0,0,0.6,0.6008,0.606,0.6063,0.6032,0.6064,0.607,0.6081,0.611,0.6114,0.6096,0.6097,0.6138,0.6142,0.6146,0.6168,0.6161,0.6163,0.6164,0.622,0.6221,0.6221,0,0,0,0,0,0,0.5998,0.6004,0.6058,0.6036,0.6043,0.6066,0.6078,0.6082,0.6092,0.6115,0.6119,0.6102,0.6138,0.6143,0.6164,0.617,0.6164,0.6166,0.622,0.6221,0.6221,0.6213,0,0,0,0,0,0,0.5996,0.6004,0.601,0.6036,0.6044,0.6076,0.6079,0.6083,0.6095,0.6096,0.6121,0.6125,0.6138,0.6161,0.6166,0.6173,0.6167,0.622,0.622,0.6221,0.6213,0.6213,0.6213,0,0,0,0,0,0.5994,0.6006,0.601,0.6017,0.6053,0.6076,0.6081,0.6095,0.6095,0.6102,0.6117,0.6124,0.6168,0.6163,0.6169,0.6176,0.6219,0.622,0.6221,0.6212,0.6213,0.6213,0,0,0,0,0,0,0.598,0.6009,0.6015,0.6035,0.6053,0.6079,0.6088,0.6095,0.6113,0.6113,0.6131,0.6136,0.6156,0.6168,0.6161,0.6195,0.6194,0.6196,0.6186,0.6187,0.6187,0.6184,0.6169,0,0,0,0,0,0.5979,0.5995,0.602,0.6036,0.6045,0.6065,0.6075,0.6085,0.6104,0.6112,0.6128,0.6146,0.6165,0.6176,0.6194,0.6214,0.6221,0.6222,0.6223,0.6223,0.6224,0.6237,0.6239,0.6224,0.6224,0.6224,0,0,0.5978,0.5996,0.6005,0.6034,0.6049,0.6066,0.6071,0.6088,0.6101,0.6114,0.6136,0.6149,0.617,0.6191,0.6201,0.6202,0.623,0.6224,0.6224,0.6225,0.6238,0.624,0.6241,0.6224,0.6224,0.6224,0,0,0.5984,0.5999,0.6015,0.603,0.6052,0.6066,0.6069,0.6094,0.6104,0.6125,0.6136,0.6152,0.6182,0.6197,0.6209,0.6223,0.623,0.6228,0.623,0.6242,0.6243,0.6244,0.625,0.6252,0.6229,0.6229,0.6229,0,0.598,0.6006,0.6021,0.6039,0.6052,0.6065,0.6081,0.6095,0.6122,0.6131,0.6131,0.617,0.6186,0.6211,0.6215,0.6223,0.6229,0.6225,0.6242,0.6243,0.6244,0.625,0.6252,0.6229,0.6229,0.6229,0.6229,0,0.5999,0.6017,0.6027,0.6054,0.6068,0.6084,0.6103,0.6115,0.6124,0.6138,0.616,0.6179,0.6202,0.6208,0.6217,0.6235,0.6235,0.6238,0.6238,0.6245,0.6251,0.6253,0.6229,0.6229,0.6229,0.6229,0,0,0.5998,0.6034,0.6037,0.605,0.6077,0.6091,0.6109,0.6131,0.6142,0.616,0.6176,0.6202,0.6206,0.6219,0.6229,0.624,0.6251,0.6242,0.6243,0.6244,0.6274,0.6272,0.6274,0.6256,0.6256,0.6257,0.6273,0,0.6008,0.604,0.6056,0.6081,0.6099,0.6112,0.6128,0.6146,0.6159,0.6176,0.6191,0.6209,0.6212,0.622,0.6232,0.6247,0.6258,0.6246,0.6271,0.6272,0.6266,0.6277,0.6275,0.6289,0.6275,0.6275,0.6275,0,0.6024,0.6044,0.6071,0.6097,0.6105,0.6119,0.6141,0.6157,0.6178,0.6187,0.6203,0.6214,0.6233,0.6232,0.6259,0.6251,0.6263,0.6272,0.6273,0.6276,0.6274,0.6281,0.6293,0.6296,0.6279,0.6279,0.6278,0,0.6021,0.6054,0.6076,0.6086,0.6116,0.6126,0.6139,0.616,0.6173,0.6193,0.6202,0.6223,0.6235,0.6252,0.6268,0.6265,0.6294,0.6294,0.6303,0.6303,0.6309,0.6308,0.6323,0.6315,0.6315,0.6315,0.6315,0,0.6032,0.6048,0.6075,0.6088,0.6107,0.6125,0.6143,0.6157,0.6176,0.6193,0.6205,0.622,0.6241,0.6259,0.6271,0.6293,0.6298,0.6306,0.6309,0.6305,0.6305,0.6313,0.6313,0.6315,0.6315,0.6315,0.6315,0,0.6032,0.605,0.6074,0.6101,0.6109,0.6122,0.6145,0.6159,0.6173,0.6194,0.62,0.6222,0.6244,0.6262,0.629,0.6298,0.6321,0.6325,0.6314,0.6316,0.6324,0.6324,0.6346,0.6351,0.6338,0.6338,0.6338,0,0.6037,0.605,0.608,0.6092,0.6105,0.6124,0.6138,0.6156,0.617,0.6196,0.6207,0.6229,0.6249,0.6283,0.6302,0.6324,0.6328,0.6335,0.6331,0.6328,0.6329,0.6329,0.6331,0.6335,0.6335,0.6335,0.6335,0,0.6046,0.6054,0.6074,0.6097,0.6113,0.6132,0.6151,0.616,0.6182,0.6197,0.622,0.6235,0.6265,0.6287,0.6312,0.6325,0.6334,0.6336,0.6339,0.6336,0.6329,0.6334,0.6316,0.6335,0.6335,0.6335,0.6335,0.6335,0.6049,0.6062,0.6085,0.6107,0.6123,0.6141,0.6156,0.6172,0.6192,0.6218,0.6227,0.6251,0.6273,0.6307,0.6321,0.634,0.6341,0.6345,0.6347,0.6348,0.6348,0.6326,0.6344,0.6344,0.6344,0.6344,0.6344,0,0.6059,0.6075,0.6094,0.6121,0.6139,0.6146,0.6168,0.6182,0.6203,0.6223,0.6242,0.6269,0.6292,0.6313,0.6336,0.6348,0.6352,0.6353,0.6353,0.6356,0.6345,0.634,0.6349,0.6349,0.6349,0.6349,0.6349,0.6349,0.6066,0.6089,0.61,0.6132,0.6148,0.6171,0.6183,0.62,0.6217,0.6247,0.6266,0.6279,0.63,0.6326,0.6347,0.6353,0.6362,0.6362,0.6368,0.6358,0.6357,0.6356,0.6352,0.6363,0.6363,0.6378,0.6378,0.6379]}]]